Location: Cheching
(60.0667°N, 164.2167°W)
Time: 13:30:03
(UTC+00:00)

NOAA 19 - Pass Details

Date: 19 January 2021
Orbit: 840 x 862 km, 99.2° (Epoch: 01 March)

Event Time Altitude Azimuth Distance (km) Brightness Sun altitude
Rises 16:04:13 0° 24° (NNE) 3,436 8.7 -25.3°
Reaches altitude 10° 16:07:57 10° 50° (NE) 2,489 8.3 -24.8°
Maximum altitude 16:10:41 14° 80° (E) 2,221 8.3 -24.5°
Drops below altitude 10° 16:13:25 10° 110° (ESE) 2,474 8.5 -24.1°
Sets 16:17:05 0° 136° (SE) 3,399 9.0 -23.7°
